User: anonymous   Login
Location: Bridgewater Hill Observatory
(43.5992°N, 72.6989°W)
Time: 15:15:04
(UTC-04:00)
Language:

Cosmos 1452 Rocket - Orbit

View from above orbital plane
View from above orbital plane
View from above satellite
View from above satellite

Ground track
Ground track

The orbit data is extracted from the following two-line orbital elements,

1 13992U 83031B   14304.14273368  .00000216  00000-0  83802-4 0  5502
2 13992 074.0531 327.6961 0005117 202.7941 212.1602 14.35800673651002
Epoch (UTC): 31 October 2014 03:25:32
Eccentricity: 0.0005117
inclination: 74.0531°
perigee height: 769 km
apogee height: 776 km
right ascension of ascending node: 327.6961°
argument of perigee: 202.7941°
revolutions per day: 14.35800673
mean anomaly at epoch: 212.1602°
orbit number at epoch: 65100

The dashed part of the orbit path shows where the satellite is in the earth's shadow,  

DLR